User: anonymous   Login
Location: Unspecified
(0.0000°N, 0.0000°E)
Time: 00:54:37
(UTC+00:00)
Language:

FFLY-1 - Orbit

View from above orbital plane
View from above orbital plane
View from above satellite
View from above satellite

Ground track
Ground track

The orbit is defined by the following mean orbital elements,

1 65320U          26145.64645205 +.00000000 +00000-0 +10835-3 0 00009
2 65320  97.7380 221.2659 0008291 246.0250 114.0101 14.92568063    00
Epoch (UTC): 25 May 2026 15:30:53
Eccentricity: 0.0008291
inclination: 97.7380°
perigee height: 584 km
apogee height: 596 km
right ascension of ascending node: 221.2659°
argument of perigee: 246.0250°
revolutions per day: 14.92568063
mean anomaly at epoch: 114.0101°

The dashed part of the orbit path shows where the satellite is in the earth's shadow,  

DLR